Metropolis, IL

3:23 PM CDT on April 24, 2017 (GMT -0500)
Metropolis

Weather History for KM30 - April, 2013

Change the Weather History Date:

Thursday, April 25, 2013

  Actual Average (KPAH) Record (KPAH)
Temperature  
Mean Temperature 48 °F -  
Max Temperature 65 °F 69 °F 88 °F (1986)
Min Temperature 32 °F 47 °F 32 °F (2013)
Degree Days  
Heating Degree Days 17    
Moisture  
Dew Point 38 °F    
Average Humidity 71    
Maximum Humidity 100    
Minimum Humidity 34    
Precipitation  
Precipitation 0.00 in - - ()
Sea Level Pressure  
Sea Level Pressure 30.32 in    
Wind  
Wind Speed 2 mph (SW)    
Max Wind Speed 9 mph    
Max Gust Speed -    
Visibility 8 miles    
Events      
Averages and records for this station are not official NWS values.
T = Trace of Precipitation, MM = Missing Value Source: NWS Daily Summary

Daily Weather History Graph

Daily Weather History Graph

Search for Another Location

Airport or City:

Trip Planner

Search our weather history database for the weather conditions in past years. The results will help you decide how hot, cold, wet, or windy it might be!

Date:

Astronomy

Apr. 25, 2013 Rise Set
Actual Time 6:07 AM CDT 7:39 PM CDT
Civil Twilight 5:39 AM CDT 8:06 PM CDT
Nautical Twilight 5:06 AM CDT 8:40 PM CDT
Astronomical Twilight 4:31 AM CDT 9:15 PM CDT
Moon 7:51 PM CDT (4/25) 5:49 AM CDT (4/25)
Length of Visible Light 14h 27m
Length of Day
13h 32m
Full, 100% of the Moon is Illuminated
Apr 25
Full
Apr 25
Full
May 2
Last Quarter
May 9
New
May 17
First Quarter

Hourly Weather History & Observations

Time (CDT) Temp. Windchill Dew Point Humidity Pressure Visibility Wind Dir Wind Speed Gust Speed Precip Events Conditions
12:15 AM 38.1 °F - 38.1 °F 100% 30.29 in 3.0 mi Calm Calm - N/A   Clear
12:35 AM 37.2 °F - 37.2 °F 100% 30.29 in 2.5 mi Calm Calm - N/A   Clear
12:55 AM 36.7 °F - 36.7 °F 100% 30.28 in 4.0 mi Calm Calm - N/A   Clear
1:15 AM 36.5 °F - 36.5 °F 100% 30.28 in 4.0 mi Calm Calm - N/A   Clear
1:35 AM 35.2 °F - 35.2 °F 100% 30.27 in 2.5 mi Calm Calm - N/A   Clear
1:55 AM 35.1 °F - 35.1 °F 100% 30.27 in 3.0 mi Calm Calm - N/A   Clear
2:15 AM 35.1 °F - 35.1 °F 100% 30.28 in 5.0 mi Calm Calm - N/A   Clear
2:35 AM 34.7 °F - 34.7 °F 100% 30.28 in 4.0 mi Calm Calm - N/A   Clear
2:55 AM 34.7 °F - 34.7 °F 100% 30.29 in 5.0 mi Calm Calm - N/A   Clear
3:15 AM 34.3 °F - 34.3 °F 100% 30.29 in 4.0 mi Calm Calm - N/A   Clear
3:35 AM 33.8 °F - 33.8 °F 100% 30.29 in 3.0 mi Calm Calm - N/A   Clear
3:55 AM 34.2 °F - 34.2 °F 100% 30.29 in 5.0 mi Calm Calm - N/A   Clear
4:15 AM 33.6 °F - 33.6 °F 100% 30.30 in 4.0 mi Calm Calm - N/A   Clear
4:35 AM 33.4 °F - 33.4 °F 100% 30.30 in 4.0 mi Calm Calm - N/A   Clear
4:55 AM 32.9 °F - 32.9 °F 100% 30.30 in 4.0 mi Calm Calm - N/A   Clear
5:15 AM 33.1 °F - 33.1 °F 100% 30.30 in 4.0 mi Calm Calm - N/A   Clear
5:35 AM 32.9 °F - 32.9 °F 100% 30.30 in 4.0 mi Calm Calm - N/A   Clear
5:55 AM 32.5 °F - 32.5 °F 100% 30.31 in 3.0 mi Calm Calm - N/A   Clear
6:15 AM 32.0 °F - 32.0 °F 100% 30.31 in 3.0 mi Calm Calm - N/A   Clear
6:35 AM 32.2 °F - 32.2 °F 100% 30.32 in 3.0 mi Calm Calm - N/A   Clear
6:55 AM 34.3 °F - 34.3 °F 100% 30.33 in 7.0 mi Calm Calm - N/A   Clear
7:15 AM 38.7 °F 36.3 °F 38.7 °F 100% 30.33 in 10.0 mi South 3.5 mph - N/A   Clear
7:35 AM 41.4 °F 39.4 °F 40.1 °F 95% 30.34 in 10.0 mi South 3.5 mph - N/A   Clear
7:55 AM 43.7 °F 40.3 °F 40.3 °F 88% 30.34 in 10.0 mi South 5.8 mph - N/A   Clear
8:15 AM 45.9 °F 42.9 °F 41.2 °F 84% 30.35 in 10.0 mi SSW 5.8 mph - N/A   Clear
8:35 AM 47.7 °F - 39.7 °F 74% 30.36 in 10.0 mi South 5.8 mph - N/A   Clear
8:55 AM 49.5 °F - 40.3 °F 71% 30.36 in 10.0 mi SW 5.8 mph - N/A   Clear
9:15 AM 50.2 °F - 39.9 °F 68% 30.36 in 10.0 mi SSW 6.9 mph - N/A   Clear
9:35 AM 51.6 °F - 39.9 °F 64% 30.36 in 10.0 mi SSW 6.9 mph - N/A   Clear
9:55 AM 52.7 °F - 39.9 °F 62% 30.36 in 10.0 mi SSW 5.8 mph - N/A   Clear
10:15 AM 54.3 °F - 38.7 °F 55% 30.37 in 10.0 mi WSW 8.1 mph - N/A   Clear
10:55 AM 56.3 °F - 38.7 °F 52% 30.37 in 10.0 mi West 3.5 mph - N/A   Clear
11:55 AM 58.1 °F - 37.6 °F 46% 30.36 in 10.0 mi SW 4.6 mph - N/A   Clear
12:15 PM 58.3 °F - 36.1 °F 44% 30.35 in 10.0 mi WSW 5.8 mph - N/A   Clear
12:35 PM 59.2 °F - 39.2 °F 48% 30.35 in 10.0 mi SSW 5.8 mph - N/A   Clear
12:55 PM 59.7 °F - 37.9 °F 44% 30.34 in 10.0 mi SW 9.2 mph - N/A   Clear
1:15 PM 60.8 °F - 37.2 °F 42% 30.34 in 10.0 mi WSW 9.2 mph - N/A   Clear
1:35 PM 61.5 °F - 36.3 °F 39% 30.34 in 10.0 mi West 6.9 mph - N/A   Clear
1:55 PM 61.7 °F - 37.0 °F 40% 30.34 in 10.0 mi West 6.9 mph - N/A   Clear
2:15 PM 61.7 °F - 37.4 °F 41% 30.34 in 10.0 mi West 6.9 mph - N/A   Clear
2:35 PM 62.2 °F - 37.2 °F 39% 30.33 in 10.0 mi West 8.1 mph - N/A   Clear
2:55 PM 63.3 °F - 39.4 °F 41% 30.33 in 10.0 mi WSW 8.1 mph - N/A   Clear
3:15 PM 63.5 °F - 38.5 °F 40% 30.32 in 10.0 mi SW 6.9 mph - N/A   Clear
3:35 PM 64.0 °F - 38.1 °F 38% 30.31 in 10.0 mi NNW 3.5 mph - N/A   Clear
3:55 PM 64.4 °F - 38.7 °F 39% 30.31 in 10.0 mi SW 4.6 mph - N/A   Clear
4:15 PM 64.4 °F - 39.2 °F 40% 30.31 in 10.0 mi SSW 4.6 mph - N/A   Clear
4:35 PM 64.4 °F - 38.1 °F 38% 30.30 in 10.0 mi SSW 3.5 mph - N/A   Clear
4:55 PM 64.8 °F - 38.5 °F 38% 30.30 in 10.0 mi SSW 4.6 mph - N/A   Clear
5:15 PM 64.6 °F - 37.4 °F 37% 30.30 in 10.0 mi Calm Calm - N/A   Clear
5:35 PM 64.4 °F - 36.9 °F 36% 30.30 in 10.0 mi Calm Calm - N/A   Clear
5:55 PM 64.6 °F - 36.7 °F 36% 30.30 in 10.0 mi Calm Calm - N/A   Clear
6:15 PM 64.0 °F - 35.1 °F 34% 30.30 in 10.0 mi Calm Calm - N/A   Clear
6:35 PM 63.7 °F - 38.3 °F 39% 30.30 in 10.0 mi SW 3.5 mph - N/A   Clear
6:55 PM 62.6 °F - 38.8 °F 42% 30.30 in 10.0 mi Calm Calm - N/A   Clear
7:15 PM 61.0 °F - 39.7 °F 46% 30.31 in 10.0 mi Calm Calm - N/A   Clear
7:35 PM 59.5 °F - 39.2 °F 47% 30.30 in 10.0 mi Calm Calm - N/A   Clear
7:55 PM 55.6 °F - 43.9 °F 65% 30.31 in 10.0 mi Calm Calm - N/A   Clear
8:15 PM 54.9 °F - 42.4 °F 63% 30.31 in 10.0 mi Calm Calm - N/A   Clear
8:35 PM 52.3 °F - 43.5 °F 72% 30.32 in 10.0 mi Calm Calm - N/A   Clear
8:55 PM 50.7 °F - 43.2 °F 75% 30.33 in 10.0 mi Calm Calm - N/A   Clear
9:15 PM 51.4 °F - 43.3 °F 74% 30.34 in 10.0 mi NNE 3.5 mph - N/A   Clear
9:35 PM 49.6 °F - 42.8 °F 77% 30.34 in 4.0 mi Calm Calm - N/A   Haze
9:55 PM 48.7 °F - 42.8 °F 80% 30.34 in 10.0 mi Calm Calm - N/A   Clear
10:15 PM 49.1 °F - 42.6 °F 78% 30.35 in 10.0 mi Calm Calm - N/A   Clear
10:35 PM 48.4 °F - 42.6 °F 80% 30.35 in 10.0 mi Calm Calm - N/A   Clear
10:55 PM 48.4 °F - 42.1 °F 79% 30.35 in 10.0 mi Calm Calm - N/A   Clear
11:15 PM 47.3 °F - 42.1 °F 82% 30.35 in 10.0 mi Calm Calm - N/A   Clear
11:35 PM 46.9 °F - 41.0 °F 80% 30.34 in 10.0 mi Calm Calm - N/A   Clear
11:55 PM 46.6 °F - 41.0 °F 81% 30.34 in 10.0 mi Calm Calm - N/A   Clear